Regional Weather Roundup
Issued by NWS Cleveland, OH

Home | Current Version | Previous Version | Graphics & Text | Print | Product List | Glossary On
Versions: 1 2 3 4 5 6 7 8 9 10 11 12 13 14 15 16 17 18 19 20 21 22 23 24 25 26 27 28 29 30 31 32 33 34 35 36 37 38 39 40 41 42 43 44 45 46 47 48 49 50
000
ASUS41 KCLE 241212
RWRCLE
OHIO REGIONAL WEATHER ROUNDUP
NATIONAL WEATHER SERVICE WILMINGTON, OH
800 AM EDT THU MAY 24 2018

NOTE: "FAIR" INDICATES FEW OR NO CLOUDS BELOW 12,000 FEET WITH NO
SIGNIFICANT WEATHER AND/OR OBSTRUCTIONS TO VISIBILITY.

OHZ001>008-015>018-024>027-034-035-043-044-241300-
   NORTHWEST OHIO

CITY           SKY/WX    TMP DP  RH WIND       PRES   REMARKS
DEFIANCE       FAIR      59  56  89 CALM      30.25R
FINDLAY        FAIR      62  56  80 CALM      30.23R
TOLEDO EXPRESS NOT AVBL
TOLEDO EXEC    FAIR      62  55  77 CALM      30.24R
LIMA           FAIR      62  55  77 CALM      30.24R
$$

OHZ009>014-019>023-028>033-038-089-241300-
   NORTHEAST OHIO

CITY           SKY/WX    TMP DP  RH WIND       PRES   REMARKS
CLE-HOPKINS    NOT AVBL
CLE-LAKEFRONT  FAIR      61  53  75 SE5       30.23R
CUY CO. ARPT   SUNNY     61  57  88 CALM      30.25R
LORAIN-ELYRIA  FAIR      57  50  77 CALM      30.24R
ASHTABULA      FAIR      55  54  96 CALM      30.25R
AKRON-CANTON   NOT AVBL
WOOSTER        FAIR      57  54  89 CALM      30.25R
MANSFIELD      NOT AVBL
YOUNGSTOWN     NOT AVBL
$$

OHZ042-051>053-060>062-070>072-077>081-241300-
  SOUTHWEST OHIO

CITY           SKY/WX    TMP DP  RH WIND       PRES   REMARKS
CINC-COVINGTON NOT AVBL
CINC-LUNKEN    FAIR      61  60  97 CALM      30.22R
HAMILTON       FAIR      62  59  90 NW3       30.23R
DAYTON         FAIR      64  54  69 E3        30.24R
WRIGHT-PAT AFB FAIR      60  53  78 CALM      30.23R
DAYTON GENERAL FAIR      64  54  69 NE7       30.22R
WILMINGTON     FAIR      61  56  83 NE7       30.22R
$$

OHZ036-037-039>041-045>050-054>059-063>069-073>076-082>088-241300-
  CENTRAL AND SOUTHEAST OHIO

CITY           SKY/WX    TMP DP  RH WIND       PRES   REMARKS
COLUMBUS       NOT AVBL
OSU AIRPORT    FAIR      62  53  72 CALM      30.23R
BOLTON FIELD   SUNNY     63  54  72 NE3       30.24R
RICKENBACK AFB FAIR      59  55  84 MISG      30.22R
NEWARK         FAIR      57  54  89 CALM      30.23R
MARION         FAIR      60  55  83 CALM      30.24R
LANCASTER      FAIR      58  57  97 CALM      30.23R
ZANESVILLE     FAIR      58  52  80 CALM      30.23R
NEW PHILLY     FAIR      56  53  90 CALM      30.25R
$$



USA.gov is the U.S. government's official web portal to all federal, state and local government web resources and services.